Wetterdaten am Flugplatz MSG Übersee

alte Datensätze gelöscht
88 aktuelle Wetterdateneinträge gefunden

Datum/Uhrzeit   Windrichtung/Grad    Geschw./kmh    Temp./C°    Luftdruck/mbar    Spannung/Volt   
2026-09-03 00:05 O/78 2 19 1025 12,42
2026-09-03 00:15 O/78 6 18 1025 12,02
2026-09-03 00:25 O/78 4 18 1025 12,29
2026-09-03 00:35 O/78 3 18 1025 12,33
2026-09-03 00:45 O/78 2 18 1025 12,36
2026-09-03 00:55 O/78 1 18 1025 12,39
2026-09-03 01:05 O/78 0 18 1025 12,42
2026-09-03 01:15 O/78 0 18 1025 12,10
2026-09-03 01:25 O/74 4 18 1025 12,29
2026-09-03 01:35 NW/334 6 18 1025 12,30
2026-09-03 01:46 NW/323 1 17 1025 12,33
2026-09-03 01:56 NW/321 3 17 1025 12,35
2026-09-03 02:06 NW/321 4 17 1025 12,39
2026-09-03 02:16 NW/321 3 17 1025 12,02
2026-09-03 02:26 NW/316 5 17 1025 12,29
2026-09-03 02:36 W/268 5 17 1025 12,29
2026-09-03 02:46 W/264 5 17 1025 12,32
2026-09-03 02:56 W/270 3 17 1025 12,35
2026-09-03 03:06 W/292 4 17 1025 12,38
2026-09-03 03:16 NW/295 3 17 1025 12,04
2026-09-03 03:26 NW/295 4 17 1025 12,23
2026-09-03 03:36 NW/295 3 17 1025 12,27
2026-09-03 03:46 NW/295 2 17 1025 12,30
2026-09-03 03:56 NW/295 1 17 1025 12,32
2026-09-03 04:06 NW/295 2 17 1025 12,17
2026-09-03 04:16 NW/295 1 17 1025 12,23
2026-09-03 04:27 NW/295 3 17 1025 12,26
2026-09-03 04:37 NW/295 5 17 1025 12,29
2026-09-03 04:47 NW/295 4 17 1025 12,30
2026-09-03 04:57 NW/295 4 17 1025 12,16
2026-09-03 05:07 NW/295 3 17 1025 12,21
2026-09-03 05:17 NW/295 2 17 1025 12,24
2026-09-03 05:27 NW/295 1 17 1025 12,27
2026-09-03 05:37 NW/295 0 17 1025 12,30
2026-09-03 05:47 NW/295 0 16 1025 12,14
2026-09-03 05:57 NW/295 0 16 1025 12,20
2026-09-03 06:07 NW/295 0 16 1025 12,23
2026-09-03 06:17 NW/295 0 16 1025 12,26
2026-09-03 06:27 NW/295 0 16 1025 12,29
2026-09-03 06:37 NW/295 1 16 1025 12,11
2026-09-03 06:47 NW/295 0 16 1025 12,17
2026-09-03 06:57 NW/295 1 16 1025 12,20
2026-09-03 07:07 NW/295 1 16 1025 12,23
2026-09-03 07:17 NW/295 1 15 1025 12,26
2026-09-03 07:28 NW/295 3 15 1025 12,13
2026-09-03 07:38 W/284 4 15 1026 12,20
2026-09-03 07:48 SW/212 6 16 1026 12,23
2026-09-03 07:58 SW/210 5 16 1026 12,27
2026-09-03 08:08 SW/219 3 17 1026 12,17
2026-09-03 08:18 SW/220 1 18 1026 12,26
2026-09-03 08:28 SW/221 1 18 1026 12,30
2026-09-03 08:38 SW/221 3 19 1026 12,38
2026-09-03 08:48 SW/221 2 20 1026 12,43
2026-09-03 08:58 SW/221 3 21 1026 12,48
2026-09-03 09:08 SW/222 2 22 1026 12,08
2026-09-03 09:18 W/279 6 23 1026 12,36
2026-09-03 09:29 NW/319 7 24 1026 12,40
2026-09-03 09:39 NW/327 8 24 1026 12,45
2026-09-03 09:49 NW/324 9 25 1026 12,57
2026-09-03 09:59 NW/322 13 26 1026 12,57
2026-09-03 10:09 NW/326 14 26 1026 12,55
2026-09-03 10:19 NW/323 20 27 1026 12,57
2026-09-03 10:29 NW/321 20 27 1026 12,57
2026-09-03 10:39 NW/320 19 28 1026 12,58
2026-09-03 10:49 NW/323 17 28 1026 12,58
2026-09-03 10:59 NW/326 19 28 1026 12,07
2026-09-03 11:09 NW/325 22 28 1026 12,30
2026-09-03 11:19 NW/328 17 28 1026 12,33
2026-09-03 11:29 NW/333 14 28 1026 12,38
2026-09-03 11:40 NW/324 21 28 1026 12,39
2026-09-03 11:50 NW/311 19 28 1026 12,40
2026-09-03 12:00 NW/312 18 28 1026 12,40
2026-09-03 12:10 W/287 17 28 1026 12,43
2026-09-03 12:20 NW/293 12 28 1026 12,45
2026-09-03 12:30 W/276 14 29 1025 12,48
2026-09-03 12:40 NW/304 20 29 1025 12,48
2026-09-03 12:50 NW/298 16 29 1025 12,51
2026-09-03 13:00 NW/301 13 29 1025 11,96
2026-09-03 13:10 NW/300 18 29 1025 12,24
2026-09-03 13:20 NW/314 16 29 1025 12,29
2026-09-03 13:30 NW/310 16 29 1025 12,35
2026-09-03 13:40 NW/298 19 29 1025 12,35
2026-09-03 13:50 W/288 22 29 1025 12,36
2026-09-03 14:01 NW/309 16 29 1025 12,38
2026-09-03 14:11 NW/321 21 29 1025 12,40
2026-09-03 14:21 NW/320 18 29 1025 12,40
2026-09-03 14:31 NW/320 16 29 1025 12,42
2026-09-03 14:41 NW/313 14 29 1025 12,45